N3EYQ Weather Reports


Display with metric or nautical units.
time (UTC)temp
F
wind
direction
speed
MPH
gust
MPH
rain 1hr
in
rain 24hr
in
rain mn
in
humidity
%
barometer
mb
20200408182052 51 338 1.0 3.0 0.00 0.12 0.12 74 1002.7
20200408181552 51 338 0.0 3.0 0.00 0.12 0.12 74 1002.7
20200408181052 51 338 1.0 5.0 0.00 0.12 0.12 75 1002.7
20200408180552 51 338 2.0 5.0 0.00 0.12 0.12 75 1002.7
20200408180052 50 338 0.0 4.0 0.00 0.12 0.12 75 1002.7
20200408175552 51 338 3.0 3.0 0.00 0.12 0.12 75 1002.7
20200408175052 51 338 2.0 3.0 0.00 0.12 0.12 75 1002.7
20200408174551 51 338 2.0 3.0 0.00 0.12 0.12 76 1002.7
20200408174051 51 338 3.0 3.0 0.00 0.12 0.12 76 1002.7
20200408173522 51 338 2.0 3.0 0.00 0.12 0.12 76 1002.7
20200408173051 51 338 2.0 3.0 0.00 0.12 0.12 76 1002.7
20200408172551 52 338 2.0 3.0 0.00 0.12 0.12 76 1002.7
20200408172051 51 338 2.0 3.0 0.00 0.12 0.12 78 1002.4
20200408171551 51 338 1.0 5.0 0.00 0.12 0.12 77 1002.4
20200408171021 50 338 3.0 5.0 0.00 0.12 0.12 77 1002.4
20200408170550 51 338 3.0 3.0 0.00 0.12 0.12 78 1002.7
20200408170050 50 90 0.0 7.0 0.00 0.12 0.12 79 1002.7
20200408165550 50 90 0.0 7.0 0.00 0.12 0.12 78 1002.7
20200408165050 50 90 7.0 7.0 0.00 0.12 0.12 79 1002.4
20200408164550 50 90 3.0 5.0 0.00 0.12 0.12 80 1002.7
20200408164050 49 68 3.0 5.0 0.00 0.12 0.12 79 1002.7
20200408163549 49 113 1.0 4.0 0.00 0.12 0.12 80 1002.4
20200408163049 49 113 3.0 4.0 0.00 0.12 0.12 80 1002.7
20200408162534 49 90 3.0 5.0 0.00 0.12 0.12 80 1002.7
20200408162034 49 90 2.0 6.0 0.00 0.12 0.12 80 1002.4
20200408161534 49 90 1.0 6.0 0.00 0.12 0.12 80 1002.4
20200408161034 49 90 5.0 6.0 0.00 0.12 0.12 80 1002.4
20200408160548 49 90 1.0 3.0 0.00 0.12 0.12 81 1002.4
20200408160049 49 113 0.0 4.0 0.00 0.12 0.12 81 1002.4
20200408155534 49 90 1.0 4.0 0.00 0.12 0.12 81 1002.4
20200408155018 49 90 2.0 4.0 0.00 0.12 0.12 82 1002.4
20200408154548 49 90 1.0 4.0 0.00 0.12 0.12 82 1002.4
20200408154048 49 90 0.0 3.0 0.00 0.12 0.12 82 1002.4
20200408153548 48 90 0.0 3.0 0.00 0.12 0.12 81 1002.4
20200408153047 48 68 1.0 4.0 0.00 0.12 0.12 83 1002.4
20200408152547 48 68 2.0 4.0 0.00 0.12 0.12 82 1002.4
20200408152017 48 113 1.0 3.0 0.00 0.12 0.12 82 1002.4
20200408151547 48 135 0.0 3.0 0.00 0.12 0.12 82 1002.4
20200408151017 48 135 1.0 4.0 0.00 0.12 0.12 82 1002.4
20200408150547 48 68 2.0 4.0 0.00 0.12 0.12 82 1002.4
20200408150032 48 90 2.0 5.0 0.00 0.12 0.12 83 1002.4
20200408145532 48 90 1.0 5.0 0.00 0.12 0.12 83 1002.4
20200408145046 48 113 1.0 5.0 0.00 0.12 0.12 83 1002.4
20200408144546 48 90 1.0 5.0 0.00 0.12 0.12 83 1002.4
20200408144046 48 90 1.0 3.0 0.00 0.12 0.12 83 1002.4
20200408143546 48 90 3.0 3.0 0.00 0.12 0.12 84 1002.0
20200408143046 48 90 1.0 3.0 0.00 0.12 0.12 85 1002.0
20200408142546 48 90 0.0 3.0 0.00 0.12 0.12 85 1002.4
20200408142045 48 90 3.0 3.0 0.00 0.12 0.12 85 1002.0
20200408141545 47 90 0.0 2.0 0.00 0.12 0.12 85 1002.0
20200408141015 47 90 1.0 3.0 0.00 0.12 0.12 85 1002.0
20200408140545 47 90 0.0 4.0 0.00 0.12 0.12 86 1002.0
20200408140045 47 90 3.0 5.0 0.00 0.12 0.12 86 1001.7
20200408135545 47 113 2.0 5.0 0.00 0.12 0.12 86 1001.7
20200408135030 47 113 1.0 3.0 0.00 0.12 0.12 85 1001.7
20200408134530 47 113 1.0 3.0 0.00 0.12 0.12 86 1001.7
20200408134015 47 135 3.0 6.0 0.00 0.12 0.12 86 1001.7
20200408133544 47 135 0.0 6.0 0.00 0.12 0.12 86 1001.7
20200408133044 47 315 3.0 4.0 0.00 0.12 0.12 85 1001.7
20200408132544 47 315 1.0 2.0 0.00 0.12 0.12 86 1001.7
20200408132044 47 315 2.0 3.0 0.00 0.12 0.12 85 1001.7
20200408131544 47 315 0.0 3.0 0.00 0.12 0.12 85 1001.7
20200408131043 47 315 1.0 3.0 0.00 0.12 0.12 86 1001.4
20200408130543 47 315 1.0 3.0 0.00 0.12 0.12 85 1001.4
20200408130043 47 315 2.0 3.0 0.00 0.12 0.12 85 1001.4
20200408125543 47 315 0.0 3.0 0.00 0.12 0.12 85 1001.4
20200408125043 47 315 0.0 3.0 0.00 0.12 0.12 85 1001.4
20200408124543 47 315 3.0 3.0 0.00 0.12 0.12 85 1001.4
20200408124043 47 315 0.0 3.0 0.00 0.12 0.12 86 1001.4
20200408123542 47 315 3.0 3.0 0.00 0.12 0.12 85 1001.4
20200408123042 47 315 0.0 2.0 0.00 0.12 0.12 86 1001.4
20200408122542 47 315 0.0 2.0 0.00 0.12 0.12 85 1001.4
20200408122027 47 315 0.0 3.0 0.00 0.12 0.12 85 1001.4
20200408121528 47 315 0.0 3.0 0.00 0.12 0.12 85 1001.4
20200408121042 47 315 0.0 3.0 0.00 0.12 0.12 85 1001.4
20200408120541 46 315 0.0 3.0 0.00 0.12 0.12 85 1001.0
20200408120041 46 315 0.0 1.0 0.00 0.12 0.12 85 1001.0
20200408115541 46 315 0.0 3.0 0.00 0.12 0.12 85 1001.0
20200408115041 46 315 0.0 3.0 0.00 0.12 0.12 85 1001.0
20200408114541 46 315 0.0 3.0 0.00 0.12 0.12 85 1001.0
20200408114041 47 315 0.0 4.0 0.00 0.12 0.12 85 1001.0
20200408113541 47 315 0.0 4.0 0.00 0.12 0.12 85 1001.0
20200408113040 47 315 1.0 3.0 0.00 0.12 0.12 85 1001.0
20200408112540 47 315 1.0 3.0 0.00 0.12 0.12 85 1000.7
20200408112040 47 315 0.0 3.0 0.00 0.12 0.12 84 1000.7
20200408111511 47 315 1.0 2.0 0.00 0.12 0.12 84 1000.7
20200408111040 47 315 0.0 5.0 0.00 0.12 0.12 84 1000.7
20200408110540 47 315 0.0 5.0 0.00 0.12 0.12 85 1000.7
20200408110040 47 315 0.0 2.0 0.00 0.12 0.12 84 1000.3
20200408105510 47 315 0.0 2.0 0.00 0.12 0.12 84 1000.3
20200408105039 47 315 0.0 4.0 0.00 0.12 0.12 84 1000.3
20200408104524 47 315 0.0 4.0 0.00 0.12 0.12 84 1000.3
20200408104024 47 315 1.0 3.0 0.00 0.12 0.12 84 1000.3
20200408103539 47 315 0.0 3.0 0.00 0.12 0.12 84 1000.3
20200408103039 47 315 1.0 3.0 0.00 0.12 0.12 83 1000.3
20200408102539 46 315 0.0 3.0 0.00 0.12 0.12 85 1000.0
20200408102039 46 315 0.0 2.0 0.00 0.12 0.12 85 999.7
20200408101538 46 315 1.0 1.0 0.00 0.12 0.12 84 999.7
20200408101038 46 315 0.0 2.0 0.00 0.12 0.12 84 999.7
20200408100538 46 315 0.0 2.0 0.00 0.12 0.12 84 999.7
20200408100038 46 315 0.0 2.0 0.00 0.12 0.12 84 999.7
20200408095508 46 315 0.0 0.0 0.00 0.12 0.12 83 999.7
20200408095038 46 315 0.0 0.0 0.00 0.12 0.12 83 999.7
20200408094537 46 315 0.0 0.0 0.00 0.12 0.12 83 999.7
20200408094037 46 315 0.0 0.0 0.00 0.12 0.12 83 999.7
20200408093537 46 315 0.0 0.0 0.00 0.12 0.12 83 999.7
20200408093022 46 315 0.0 0.0 0.00 0.12 0.12 83 999.7
20200408092522 46 315 0.0 0.0 0.00 0.12 0.12 83 1000.0
20200408092007 46 315 0.0 0.0 0.00 0.12 0.12 83 1000.0
20200408091522 46 315 0.0 0.0 0.00 0.12 0.12 83 1000.0
20200408091036 46 315 0.0 0.0 0.00 0.12 0.12 83 1000.0
20200408090536 46 315 0.0 0.0 0.00 0.12 0.12 83 1000.0
20200408090006 46 315 0.0 0.0 0.00 0.12 0.12 83 999.7
20200408085536 46 315 0.0 0.0 0.00 0.12 0.12 83 1000.0
20200408085036 46 315 0.0 0.0 0.00 0.12 0.12 82 1000.3
20200408084536 47 315 0.0 0.0 0.00 0.12 0.12 82 1000.3
20200408084035 47 315 0.0 0.0 0.00 0.12 0.12 82 1000.3
20200408083535 47 315 0.0 0.0 0.00 0.12 0.12 83 1000.3
20200408083035 47 315 0.0 1.0 0.00 0.12 0.12 83 1000.3
20200408082535 47 315 0.0 1.0 0.00 0.12 0.12 81 1000.3
20200408082035 47 315 1.0 1.0 0.00 0.12 0.12 82 1000.3
20200408081505 47 315 0.0 1.0 0.00 0.12 0.12 83 1000.7
20200408081105 47 315 0.0 0.0 0.00 0.12 0.12 81 1000.3
20200408080505 47 315 0.0 2.0 0.00 0.12 0.12 81 1000.7
20200408080034 47 315 0.0 2.0 0.01 0.12 0.12 81 1000.7
20200408075534 47 315 1.0 1.0 0.01 0.12 0.12 83 1000.7
20200408075104 47 315 1.0 1.0 0.01 0.12 0.12 81 1001.0
20200408074519 47 315 1.0 1.0 0.01 0.12 0.12 80 1001.0
20200408074020 47 315 0.0 1.0 0.01 0.12 0.12 81 1001.0
20200408073534 47 315 0.0 1.0 0.01 0.12 0.12 80 1000.7
20200408073103 47 315 0.0 1.0 0.01 0.12 0.12 80 1001.0
20200408072603 47 315 0.0 0.0 0.02 0.12 0.12 80 1001.0
20200408072103 47 315 0.0 0.0 0.02 0.12 0.12 80 1001.4
20200408071533 47 315 0.0 0.0 0.03 0.12 0.12 80 1001.0
20200408071018 47 315 0.0 0.0 0.04 0.12 0.12 80 1001.4
20200408070548 48 315 0.0 0.0 0.04 0.12 0.12 80 1001.4
20200408070048 48 315 0.0 0.0 0.05 0.11 0.11 80 1001.7
20200408065504 48 315 0.0 0.0 0.06 0.11 0.11 80 1001.7
20200408065017 48 315 0.0 1.0 0.07 0.11 0.11 80 1001.7
20200408064548 48 315 0.0 1.0 0.08 0.11 0.11 81 1001.7
20200408064047 48 315 0.0 0.0 0.09 0.11 0.11 79 1001.7
20200408063547 48 315 0.0 0.0 0.10 0.11 0.11 79 1001.7
20200408063033 48 315 0.0 0.0 0.10 0.11 0.11 79 1002.4
20200408062602 48 315 0.0 0.0 0.09 0.10 0.10 78 1002.4
20200408062101 49 315 0.0 0.0 0.09 0.10 0.10 78 1002.4
20200408061601 49 315 0.0 1.0 0.08 0.09 0.09 78 1002.4
20200408061032 49 315 0.0 1.0 0.07 0.08 0.08 80 1002.4
20200408060601 49 315 0.0 0.0 0.07 0.08 0.08 78 1002.4
20200408060101 49 315 0.0 0.0 0.05 0.06 0.06 76 1002.4
20200408055601 49 315 0.0 0.0 0.04 0.05 0.05 75 1002.7
20200408055101 49 315 0.0 0.0 0.04 0.04 0.04 75 1002.7
20200408054600 50 315 0.0 0.0 0.03 0.03 0.03 75 1003.0
20200408054031 50 315 0.0 0.0 0.02 0.02 0.02 75 1003.0
20200408053600 50 315 0.0 0.0 0.01 0.01 0.01 77 1003.0
20200408053100 50 315 0.0 0.0 0.01 0.01 0.01 74 1003.4
20200408052600 50 315 0.0 0.0 0.01 0.01 0.01 72 1003.4
20200408052100 50 315 0.0 0.0 0.01 0.01 0.01 75 1003.4
20200408051530 50 315 0.0 0.0 0.01 0.01 0.01 71 1003.4
20200408051059 50 315 0.0 0.0 0.01 0.01 0.01 72 1003.4
20200408050559 50 315 0.0 0.0 0.01 0.01 0.01 69 1003.4
20200408050059 50 315 0.0 0.0 0.01 0.01 0.01 69 1003.7
20200408045559 51 315 0.0 0.0 0.01 0.01 0.01 69 1003.7
20200408045059 51 315 0.0 0.0 0.00 0.00 0.00 68 1003.4
20200408044559 51 315 0.0 0.0 0.00 0.00 0.00 69 1003.7
20200408044058 52 315 0.0 0.0 0.00 0.00 0.00 68 1003.7
20200408043543 52 315 0.0 1.0 0.00 0.00 0.00 68 1004.1
20200408043044 52 315 0.0 1.0 0.00 0.00 0.00 67 1004.1
20200408042558 52 315 1.0 1.0 0.00 0.00 0.00 69 1004.1
20200408042058 52 315 0.0 1.0 0.00 0.00 0.00 65 1004.1
20200408041558 53 315 0.0 0.0 0.00 0.00 0.00 62 1004.1
20200408041058 53 315 0.0 0.0 0.00 0.00 0.00 61 1004.4
20200408040557 53 315 0.0 0.0 0.00 0.00 0.00 60 1004.4
20200408040057 54 315 0.0 0.0 0.00 0.00 0.00 58 1004.4
20200408035557 54 315 0.0 0.0 0.00 0.00 0.00 56 1004.4
20200408035057 55 315 0.0 0.0 0.00 0.00 0.00 54 1004.7
20200408034557 55 315 0.0 1.0 0.00 0.00 0.00 52 1004.7
20200408034027 55 315 0.0 1.0 0.00 0.00 0.00 51 1004.7
20200408033557 56 315 0.0 1.0 0.00 0.00 0.00 50 1005.1
20200408033056 56 315 0.0 0.0 0.00 0.00 0.00 47 1005.1
20200408032556 56 315 0.0 2.0 0.00 0.00 0.00 47 1005.1
20200408032026 57 315 0.0 2.0 0.00 0.00 0.00 45 1005.1
20200408031526 57 315 1.0 2.0 0.00 0.00 0.00 44 1004.7
20200408031056 57 315 1.0 1.0 0.00 0.00 0.00 44 1005.1
20200408030556 57 315 0.0 1.0 0.00 0.00 0.00 45 1005.1
20200408030056 57 315 1.0 1.0 0.00 0.00 0.00 45 1005.1
20200408025555 58 315 0.0 1.0 0.00 0.00 0.00 44 1005.1
20200408025040 58 315 0.0 1.0 0.00 0.00 0.00 43 1005.1
20200408024540 58 315 0.0 0.0 0.00 0.00 0.00 44 1005.1
20200408024025 58 315 0.0 0.0 0.00 0.00 0.00 43 1005.1
20200408023555 58 315 0.0 0.0 0.00 0.00 0.00 44 1005.1
20200408023055 58 315 0.0 0.0 0.00 0.00 0.00 43 1005.1
20200408022555 58 315 0.0 2.0 0.00 0.00 0.00 43 1005.4
20200408022054 58 315 0.0 2.0 0.00 0.00 0.00 43 1005.4
20200408021554 58 315 2.0 2.0 0.00 0.00 0.00 42 1005.4
20200408021054 59 315 0.0 1.0 0.00 0.00 0.00 43 1005.8
20200408020554 59 315 0.0 1.0 0.00 0.00 0.00 42 1005.8
20200408020024 59 315 0.0 2.0 0.00 0.00 0.00 42 1005.8
20200408015554 59 315 0.0 2.0 0.00 0.00 0.00 41 1005.8
20200408015054 59 315 0.0 3.0 0.00 0.00 0.00 42 1005.8
20200408014553 59 315 2.0 3.0 0.00 0.00 0.00 41 1005.8
20200408014024 59 315 0.0 2.0 0.00 0.00 0.00 43 1005.8
20200408013553 59 315 0.0 2.0 0.00 0.00 0.00 43 1006.1
20200408013123 70 315 2.0 2.0 0.00 0.00 0.00 28 1006.8
20200407205011 69 270 5.0 5.0 0.00 0.00 0.00 26 1006.4
20200407204540 69 270 0.0 5.0 0.00 0.00 0.00 28 1006.8
20200407204040 69 270 1.0 5.0 0.00 0.00 0.00 29 1006.8
20200407203510 68 270 3.0 4.0 0.00 0.00 0.00 29 1007.1
20200407203040 68 270 1.0 4.0 0.00 0.00 0.00 29 1007.1
20200407202540 69 270 0.0 5.0 0.00 0.00 0.00 28 1007.1
20200407202040 69 270 1.0 5.0 0.00 0.00 0.00 28 1007.1
20200407201510 69 270 1.0 7.0 0.00 0.00 0.00 28 1007.1
20200407201039 69 270 2.0 7.0 0.00 0.00 0.00 25 1007.1
20200407200539 70 270 7.0 7.0 0.00 0.00 0.00 25 1007.1
20200407200039 70 270 5.0 6.0 0.00 0.00 0.00 25 1007.5
20200407195539 69 270 0.0 4.0 0.00 0.00 0.00 28 1007.5
20200407195039 69 270 3.0 3.0 0.00 0.00 0.00 29 1007.5
20200407194524 69 270 1.0 4.0 0.00 0.00 0.00 29 1007.5
20200407194024 69 270 3.0 4.0 0.00 0.00 0.00 26 1007.5
20200407193539 68 270 2.0 2.0 0.00 0.00 0.00 29 1007.8
20200407193038 68 270 1.0 4.0 0.00 0.00 0.00 29 1007.8
20200407192538 68 270 2.0 4.0 0.00 0.00 0.00 28 1007.8
20200407192038 69 270 3.0 4.0 0.00 0.00 0.00 29 1008.1
20200407191538 68 270 1.0 6.0 0.00 0.00 0.00 29 1008.1
20200407191008 68 270 2.0 6.0 0.00 0.00 0.00 26 1008.5
20200407190537 68 270 3.0 6.0 0.00 0.00 0.00 26 1008.5
20200407190037 68 270 3.0 5.0 0.00 0.00 0.00 29 1008.5
20200407185537 68 270 1.0 5.0 0.00 0.00 0.00 30 1008.5
20200407185037 68 270 0.0 4.0 0.00 0.00 0.00 30 1008.8
20200407184507 68 270 1.0 4.0 0.00 0.00 0.00 30 1008.8
20200407184037 68 270 2.0 3.0 0.00 0.00 0.00 29 1009.1
20200407183536 68 270 2.0 7.0 0.00 0.00 0.00 30 1009.1
20200407183106 69 270 1.0 7.0 0.00 0.00 0.00 30 1009.1
20200407182507 68 248 2.0 4.0 0.00 0.00 0.00 30 1009.1